Location: Grand Lay
(47.3253°N, 0.9468°E)
Time: 20:43:49
(UTC+00:00)

Meteor 1-15 Rocket - Pass Details

Date: 18 January 2026
Orbit: 838 x 906 km, 81.2° (Epoch: 18 February)

Event Time Altitude Azimuth Distance (km) Brightness Sun altitude
Rises 06:48:37 0° 199° (SSW) 3,468 7.4 -8.2°
Reaches altitude 10° 06:51:04 10° 202° (SSW) 2,543 6.7 -7.8°
Maximum altitude 06:56:49 64° 284° (WNW) 989 4.3 -6.9°
Drops below altitude 10° 07:02:42 10° 6° (N) 2,594 6.6 -6.0°
Sets 07:05:14 0° 10° (N) 3,542 7.3 -5.6°
